sat.trackr.live / text

‹ back to catalog

ONEWEB-0661

NORAD 55821 · 2023-029AB

PAYLOAD ACTIVE UNKNOWN

§ Identity

Operator
Country
UK
Launch date
2023-03-09
Launch site
AFETR
Launch vehicle
Mass (kg)
RCS (m²)

Purposes: comms

External: N2YO · Heavens-Above · Gunter

§ Orbital elements

Epoch: 2026-09-20T00:05:22.305696Z

Period
109.55 min
Inclination
87.8888°
Eccentricity
0.0002125
Mean motion
13.14502157 rev/d
Perigee alt
1,204.2 km
Apogee alt
1,207.4 km
Semi-major
7,583.9 km
B*
4.9497e-4
RAAN
270.8231°
Arg perigee
86.6492°
Mean anomaly
273.4881°
Rev number
17,184

§ Raw data

ONEWEB-06611 55821U 23029AB  26263.00373039  .00000196  00000+0  49497-3 0  99922 55821  87.8888 270.8231 0002125  86.6492 273.4881 13.14502157171841

JSON: /api/v1/satellites/55821 · /tle

For live sub-satellite position, see the globe view (requires WebGL).

§ Visibility from observer

Set your observer location to see the next 7 days of passes ≥ 10°. The values pass through the URL so the page stays shareable.

No JS? Fill the form by hand. The geolocation button needs JavaScript.